TimeCST,TemperatureF,Dew PointF,Humidity,Sea Level PressureIn,VisibilityMPH,Wind Direction,Wind SpeedMPH,Gust SpeedMPH,PrecipitationIn,Events,Conditions,WindDirDegrees,DateUTC
12:54 AM,16.0,12.0,84,30.39,8.0,Calm,Calm,-,N/A,,Clear,0,2012-12-30 06:54:00
1:54 AM,15.1,12.0,88,30.41,7.0,Calm,Calm,-,N/A,,Clear,0,2012-12-30 07:54:00
2:54 AM,12.9,10.0,88,30.45,6.0,SW,5.8,-,N/A,,Clear,220,2012-12-30 08:54:00
3:54 AM,15.1,12.0,88,30.45,5.0,Calm,Calm,-,N/A,,Clear,0,2012-12-30 09:54:00
4:17 AM,15.8,12.2,86,30.44,1.8,Calm,Calm,-,N/A,,Clear,0,2012-12-30 10:17:00
4:25 AM,12.2,10.4,92,30.44,1.2,Calm,Calm,-,N/A,,Clear,0,2012-12-30 10:25:00
4:34 AM,12.2,8.6,85,30.44,1.5,Calm,Calm,-,N/A,,Clear,0,2012-12-30 10:34:00
4:54 AM,14.0,10.0,84,30.46,3.0,Calm,Calm,-,N/A,,Clear,0,2012-12-30 10:54:00
5:11 AM,15.8,10.4,79,30.44,1.5,Calm,Calm,-,N/A,,Clear,0,2012-12-30 11:11:00
5:14 AM,15.8,10.4,79,30.44,0.8,Calm,Calm,-,N/A,,Haze,0,2012-12-30 11:14:00
5:24 AM,14.0,8.6,79,30.44,0.2,Calm,Calm,-,N/A,,Haze,0,2012-12-30 11:24:00
5:32 AM,12.2,8.6,85,30.45,1.0,Calm,Calm,-,N/A,,Haze,0,2012-12-30 11:32:00
5:43 AM,14.0,8.6,79,30.45,1.5,Calm,Calm,-,N/A,,Haze,0,2012-12-30 11:43:00
5:47 AM,14.0,8.6,79,30.45,3.0,Calm,Calm,-,N/A,,Haze,0,2012-12-30 11:47:00
5:54 AM,14.0,10.0,84,30.48,4.0,Calm,Calm,-,N/A,,Clear,0,2012-12-30 11:54:00
6:17 AM,14.0,8.6,79,30.46,2.5,Calm,Calm,-,N/A,,Haze,0,2012-12-30 12:17:00
6:36 AM,14.0,10.4,86,30.47,2.0,Calm,Calm,-,N/A,,Scattered Clouds,0,2012-12-30 12:36:00
6:41 AM,14.0,8.6,79,30.47,1.8,SW,3.5,-,N/A,,Haze,230,2012-12-30 12:41:00
6:44 AM,14.0,8.6,79,30.48,0.8,SW,3.5,-,N/A,,Haze,230,2012-12-30 12:44:00
6:54 AM,16.0,12.0,84,30.50,0.2,Calm,Calm,-,N/A,Fog,Light Freezing Fog,0,2012-12-30 12:54:00
7:54 AM,19.0,14.0,81,30.50,0.1,Calm,Calm,-,N/A,Fog,Light Freezing Fog,0,2012-12-30 13:54:00
8:54 AM,21.9,17.1,82,30.52,0.1,Calm,Calm,-,N/A,Fog,Light Freezing Fog,0,2012-12-30 14:54:00
9:23 AM,24.8,21.2,86,30.51,5.0,Calm,Calm,-,N/A,Fog,Patches of Fog,0,2012-12-30 15:23:00
9:33 AM,26.6,21.2,80,30.52,6.0,SSW,4.6,-,N/A,,Clear,200,2012-12-30 15:33:00
9:54 AM,28.0,21.0,75,30.54,6.0,SSW,5.8,-,N/A,,Clear,210,2012-12-30 15:54:00
10:54 AM,27.0,19.0,72,30.53,10.0,SSW,10.4,-,N/A,,Clear,200,2012-12-30 16:54:00
11:54 AM,28.9,19.9,69,30.50,10.0,SSW,8.1,-,N/A,,Clear,210,2012-12-30 17:54:00
12:54 PM,30.0,21.0,69,30.44,9.0,SE,4.6,-,N/A,,Clear,140,2012-12-30 18:54:00
1:54 PM,30.9,21.0,67,30.45,9.0,South,8.1,-,N/A,,Clear,180,2012-12-30 19:54:00
2:54 PM,30.9,21.9,69,30.47,10.0,SSW,9.2,-,N/A,,Clear,200,2012-12-30 20:54:00
3:54 PM,30.9,23.0,72,30.45,9.0,South,3.5,-,N/A,,Clear,180,2012-12-30 21:54:00
4:54 PM,30.0,23.0,75,30.44,6.0,South,4.6,-,N/A,,Haze,170,2012-12-30 22:54:00
5:54 PM,27.0,21.0,78,30.43,8.0,South,3.5,-,N/A,,Clear,170,2012-12-30 23:54:00
6:54 PM,27.0,21.0,78,30.43,7.0,Calm,Calm,-,N/A,,Clear,0,2012-12-31 00:54:00
7:54 PM,25.0,21.0,85,30.41,6.0,Calm,Calm,-,N/A,,Clear,0,2012-12-31 01:54:00
8:54 PM,24.1,21.0,88,30.40,4.0,Calm,Calm,-,N/A,,Clear,0,2012-12-31 02:54:00
9:54 PM,24.1,21.0,88,30.39,6.0,Calm,Calm,-,N/A,,Clear,0,2012-12-31 03:54:00
10:54 PM,28.9,23.0,78,30.35,9.0,SE,3.5,-,N/A,,Clear,140,2012-12-31 04:54:00
11:54 PM,28.4,23.0,80,30.33,10.0,Calm,Calm,-,N/A,,Clear,0,2012-12-31 05:54:00